Weather History for New York JFK, NY

Change the Weather History Date:

Friday, January 24, 2014

  Actual Average Record
Temperature  
Mean Temperature 16 °F 32 °F  
Max Temperature 20 °F 39 °F 64 °F (1967)
Min Temperature 11 °F 26 °F 5 °F (1963)
Degree Days  
Heating Degree Days 49 33  
Month to date heating degree days 848 778  
Since 1 July heating degree days 2490 2447  
Cooling Degree Days 0 0  
Month to date cooling degree days 0 0  
Year to date cooling degree days 0 0  
Moisture  
Dew Point -2 °F    
Average Humidity 47    
Maximum Humidity 54    
Minimum Humidity 39    
Precipitation  
Precipitation 0.00 in 0.09 in 1.85 in (1979)
Month to date precipitation 2.92 2.50  
Year to date precipitation 2.92 2.50  
Snow  
Snow 0.00 in 0.10 in 2.80 in (1971)
Month to date snowfall 15.2 4.7  
Since 1 July snowfall 22.1 9.6  
Snow Depth 6.00 in    
Sea Level Pressure  
Sea Level Pressure 30.30 in    
Wind  
Wind Speed 17 mph (West)    
Max Wind Speed 25 mph    
Max Gust Speed 31 mph    
Visibility 10 miles    
Events      
T = Trace of Precipitation, MM = Missing Value Source: NWS Daily Summary

Daily Weather History Graph

Daily Weather History Graph

Search for Another Location

Airport:

Trip Planner

Search our weather history database for the weather conditions in past years. The results will help you decide how hot, cold, wet, or windy it might be!

Date:

Astronomy

Jan. 24, 2014 Rise Set
Actual Time 7:11 AM EST 5:03 PM EST
Civil Twilight 6:42 AM EST 5:32 PM EST
Nautical Twilight 6:09 AM EST 6:05 PM EST
Astronomical Twilight 5:36 AM EST 6:38 PM EST
Moon 12:35 AM EST (1/24) 11:20 AM EST (1/24)
Length of Visible Light 10h 50m
Length of Day
9h 51m
Last Quarter, 45% of the Moon is Illuminated
Jan 24
Last Quarter
Jan 30
New
Feb 6
First Quarter
Feb 14
Full
Feb 22
Last Quarter

Hourly Weather History & Observations

Time (EST) Temp. Windchill Dew Point Humidity Pressure Visibility Wind Dir Wind Speed Gust Speed Precip Events Conditions
12:51 AM 16.0 °F 0.1 °F -0.9 °F 47% 30.31 in 10.0 mi WNW 17.3 mph - N/A   Partly Cloudy
1:51 AM 15.1 °F -2.0 °F -2.0 °F 47% 30.32 in 10.0 mi WNW 19.6 mph - N/A   Partly Cloudy
2:51 AM 14.0 °F -2.5 °F -2.0 °F 49% 30.33 in 10.0 mi WNW 17.3 mph - N/A   Partly Cloudy
3:51 AM 12.9 °F -4.9 °F -4.0 °F 47% 30.33 in 10.0 mi WNW 19.6 mph 27.6 mph N/A   Partly Cloudy
4:51 AM 12.9 °F -3.9 °F -2.9 °F 49% 30.33 in 10.0 mi WNW 17.3 mph 23.0 mph N/A   Partly Cloudy
5:51 AM 12.9 °F -2.8 °F -4.0 °F 47% 30.35 in 10.0 mi NW 15.0 mph - N/A   Partly Cloudy
6:51 AM 12.0 °F -5.1 °F -5.1 °F 46% 30.38 in 10.0 mi NW 17.3 mph - N/A   Partly Cloudy
7:51 AM 12.0 °F -5.1 °F -4.0 °F 49% 30.39 in 10.0 mi NW 17.3 mph - N/A   Partly Cloudy
8:51 AM 12.9 °F -2.2 °F -4.0 °F 47% 30.40 in 10.0 mi NW 13.8 mph - N/A   Partly Cloudy
9:51 AM 12.9 °F -6.1 °F -5.1 °F 45% 30.40 in 10.0 mi WNW 23.0 mph - N/A   Partly Cloudy
10:51 AM 15.1 °F -1.6 °F -2.9 °F 45% 30.40 in 10.0 mi NW 18.4 mph - N/A   Partly Cloudy
11:51 AM 16.0 °F 1.1 °F -4.0 °F 41% 30.37 in 10.0 mi WNW 15.0 mph 21.9 mph N/A   Partly Cloudy
12:51 PM 18.0 °F 5.4 °F -2.9 °F 40% 30.33 in 10.0 mi WNW 11.5 mph - N/A   Partly Cloudy
1:51 PM 18.0 °F 4.8 °F -2.9 °F 40% 30.30 in 10.0 mi WNW 12.7 mph - N/A   Partly Cloudy
2:51 PM 19.0 °F 5.6 °F -2.9 °F 38% 30.28 in 10.0 mi West 13.8 mph - N/A   Scattered Clouds
3:51 PM 18.0 °F 4.8 °F -2.0 °F 41% 30.27 in 10.0 mi WSW 12.7 mph - N/A   Scattered Clouds
4:51 PM 17.1 °F 3.0 °F -2.0 °F 43% 30.25 in 10.0 mi WSW 13.8 mph - N/A   Scattered Clouds
5:51 PM 18.0 °F 2.6 °F -2.0 °F 41% 30.25 in 10.0 mi WSW 17.3 mph - N/A   Mostly Cloudy
6:51 PM 18.0 °F 1.7 °F 1.9 °F 50% 30.25 in 10.0 mi WSW 19.6 mph - N/A   Mostly Cloudy
7:51 PM 18.0 °F 1.7 °F 1.9 °F 50% 30.24 in 10.0 mi WSW 19.6 mph - N/A   Mostly Cloudy
8:51 PM 18.0 °F 1.7 °F 1.0 °F 48% 30.23 in 10.0 mi WSW 19.6 mph - N/A   Mostly Cloudy
9:51 PM 18.0 °F 2.6 °F 3.0 °F 52% 30.20 in 10.0 mi SW 17.3 mph - N/A   Mostly Cloudy
10:51 PM 19.0 °F 2.7 °F 3.0 °F 50% 30.17 in 10.0 mi SW 20.7 mph - N/A   Overcast
11:51 PM 19.9 °F 3.2 °F 3.9 °F 50% 30.14 in 10.0 mi SW 23.0 mph 27.6 mph N/A   Overcast